Vorticity
-2 -2 -1 0 1 1 3 2 2 3 3 2 4 6 8 8 7 6 5 4 4 3 4 3 3 4 5 6 7 8 7 6 5 4 3 2 4 5 6 6 6 7 6 6 5 4 3 3 3 3 3 3
2 1 -2 -3 -2 0 2 2 3 4 3 2 3 7 9 9 9 8 7 6 6 6 5 3 2 2 4 5 5 5 4 3 3 3 3 4 5 6 6 6 6 5 5 5 4 3 2 3 3 3 4 4
4 6 5 3 2 1 -0 -1 0 2 4 3 3 7 7 6 7 7 7 7 7 7 5 4 1 1 2 3 4 5 4 5 5 6 6 6 7 6 6 6 5 4 4 4 3 3 4 4 5 5 5 5
3 4 5 6 7 7 5 4 4 5 5 5 5 7 5 4 5 6 7 7 8 9 7 3 0 1 3 4 6 6 7 7 7 7 6 6 6 6 6 5 4 4 4 4 4 4 4 5 5 5 5 6
8 8 8 8 9 8 7 7 9 8 7 7 7 6 4 3 4 4 5 5 5 6 5 3 1 3 5 6 7 7 8 7 7 6 5 5 5 5 5 4 4 4 4 4 4 4 4 4 4 5 5 5
10 9 7 7 7 6 7 7 7 7 6 5 3 1 1 1 2 2 3 4 4 4 5 4 4 6 7 7 7 7 7 6 6 5 4 4 4 4 4 4 4 4 5 4 5 4 4 4 4 4 4 4
8 5 2 2 1 -0 2 2 2 2 0 -1 -1 -1 1 2 3 3 4 5 5 6 5 5 6 6 5 5 4 4 4 4 4 3 4 4 4 4 4 4 4 4 5 5 5 5 4 5 5 5 5 5
7 6 5 4 3 1 1 1 1 1 -0 0 1 1 3 3 4 4 5 6 6 6 5 5 5 4 3 3 2 3 3 3 3 3 3 4 4 4 4 5 5 5 4 5 5 5 5 5 5 5 5 5
5 6 5 5 5 6 4 4 3 3 4 4 5 6 7 7 7 7 7 7 7 6 6 5 4 4 3 3 3 3 3 4 4 4 4 5 5 5 5 5 5 5 5 5 5 5 5 5 5 5 6 6
4 5 5 4 4 5 5 5 4 4 4 4 5 7 7 7 7 7 7 6 5 5 4 4 4 4 4 5 5 5 5 5 5 6 5 5 5 5 5 5 5 5 5 6 5 6 6 6 6 6 6 6
6 6 6 6 6 6 6 5 5 4 4 5 6 7 7 7 6 6 5 5 5 6 6 6 6 5 5 6 5 6 6 6 6 5 5 5 5 5 5 6 6 6 6 6 7 7 7 7 7 7 7 7
7 8 8 8 8 7 6 5 5 5 6 7 6 6 6 6 6 6 6 7 7 6 6 6 6 5 5 5 5 5 5 5 5 5 5 6 6 6 6 7 8 8 8 8 8 8 8 9 9 9 9 9
5 5 5 6 6 6 6 6 6 7 8 7 7 7 6 6 6 7 7 6 6 5 5 5 5 5 5 5 5 5 6 6 6 6 6 6 7 7 7 8 9 9 10 10 10 10 10 10 10 10 10 10
6 5 5 5 5 5 6 6 6 7 8 7 7 7 6 7 7 7 6 6 6 6 6 6 6 6 6 6 6 6 7 7 7 8 8 8 9 9 9 10 10 10 11 11 11 11 11 11 10 10 9 9
10 9 9 9 8 7 7 7 7 7 7 7 7 7 7 8 8 8 7 7 7 7 7 7 7 7 8 8 8 8 9 10 10 10 11 11 12 12 12 11 11 11 10 10 10 9 9 9 8 8 8 7
10 9 9 8 8 8 7 7 7 7 7 7 7 7 7 7 8 8 8 8 8 8 8 9 9 9 10 11 11 11 12 12 13 13 13 12 12 12 11 11 10 9 8 8 7 7 6 6 6 6 6 6
9 9 9 8 8 7 7 7 7 7 7 7 7 8 7 7 7 7 8 8 9 10 10 12 13 13 13 13 14 13 13 13 12 12 11 10 9 9 8 8 7 6 6 6 6 6 5 5 5 6 6 6
10 11 11 11 10 10 9 9 8 8 7 7 8 7 7 8 8 9 10 10 12 13 14 15 14 14 13 12 12 11 10 9 8 7 7 6 6 6 6 6 6 7 6 7 7 7 7 7 7 7 7 7
8 8 7 7 7 8 8 8 8 8 8 9 9 10 11 12 13 13 13 13 14 14 13 12 11 10 9 8 8 7 7 6 6 6 6 6 7 7 7 8 8 8 8 8 8 7 8 8 8 8 7 8
11 10 11 11 11 11 11 12 13 14 15 15 15 15 15 14 13 12 12 12 11 9 9 8 8 8 8 7 7 7 7 7 7 8 8 8 8 8 8 7 7 7 6 6 6 5 6 6 6 6 5 6
12 12 12 13 13 13 14 14 15 14 14 13 13 12 11 11 10 9 9 8 8 8 8 8 9 9 8 8 7 8 8 8 8 8 7 7 6 6 5 5 5 5 5 5 6 6 7 7 8 8 8 8
8 7 7 8 8 9 9 9 10 10 10 10 10 10 10 9 9 9 8 8 9 10 10 9 9 9 8 7 6 6 6 6 5 4 4 4 5 6 6 7 7 8 8 9 9 9 9 10 10 10 10 10
8 8 8 8 8 8 8 9 9 9 9 8 8 9 9 9 9 9 10 10 10 10 9 9 7 7 6 5 5 4 4 5 5 5 6 8 9 9 9 9 9 9 9 9 9 9 9 9 9 9 10 10
6 6 6 7 7 7 8 7 6 5 6 6 7 8 6 6 7 8 9 10 10 10 9 8 7 6 6 6 6 6 6 7 8 9 10 11 11 10 10 11 10 10 11 12 12 13 12 13 14 14 15 15
8 7 7 8 8 8 7 5 5 5 6 7 6 6 6 7 9 10 12 12 11 10 8 8 7 7 7 7 7 8 8 9 11 11 12 11 12 12 12 13 13 14 15 15 16 15 15 16 16 16 16 15
10 10 10 9 9 8 7 7 7 8 8 7 7 8 10 12 13 13 12 11 10 9 8 8 8 7 6 7 8 9 10 11 12 12 13 12 12 13 13 13 14 13 13 12 11 11 11 11 10 9 9 9
10 9 8 8 8 8 8 8 9 10 9 10 11 13 13 13 13 12 10 9 8 7 7 6 5 6 7 9 11 12 13 13 12 12 11 11 10 9 8 8 8 6 5 5 5 6 5 4 4 4 4 5
10 10 9 9 10 9 9 10 11 11 12 14 15 14 13 12 9 7 6 6 6 6 6 7 8 10 12 13 13 12 11 9 8 7 5 5 4 4 3 3 4 4 4 4 5 6 4 4 5 4 4 6
10 10 10 10 10 11 11 11 12 13 15 15 14 11 9 7 5 6 7 8 9 9 10 10 11 10 10 9 7 6 5 4 4 4 4 4 4 4 5 5 6 6 6 6 7 7 6 5 6 5 5 7
10 10 10 10 10 11 12 12 13 15 15 11 9 8 7 6 6 8 9 9 9 8 8 7 6 6 5 5 5 5 5 5 5 6 6 6 6 6 6 6 6 6 6 5 5 6 6 6 6 5 5 6
11 11 12 13 13 13 12 11 12 11 9 7 6 6 6 6 7 7 7 7 7 6 6 6 5 6 5 6 6 6 6 5 5 5 5 5 6 5 5 6 5 5 6 6 6 7 8 7 7 7 7 7
Height
5768 5769 5769 5770 5770 5771 5772 5774 5775 5776 5777 5779 5779 5780 5781 5782 5783 5783 5784 5784 5785 5786 5787 5787 5788 5788 5789 5790 5790 5791 5791 5792 5792 5793 5793 5794 5794 5795 5795 5796 5797 5797 5798 5799 5799 5800 5800 5801 5801 5802 5803 5803
5765 5765 5766 5767 5767 5768 5769 5770 5771 5772 5773 5774 5775 5776 5777 5778 5778 5779 5780 5780 5781 5782 5783 5783 5784 5784 5785 5785 5786 5787 5787 5788 5788 5789 5789 5789 5790 5791 5791 5792 5792 5793 5793 5794 5795 5795 5796 5796 5797 5797 5798 5799
5761 5762 5762 5763 5764 5765 5765 5766 5767 5768 5769 5770 5771 5772 5773 5774 5774 5775 5776 5776 5776 5777 5778 5779 5780 5780 5781 5781 5781 5782 5783 5783 5784 5784 5784 5785 5785 5786 5786 5787 5788 5788 5789 5790 5790 5791 5791 5792 5792 5793 5793 5794
5757 5758 5758 5759 5760 5761 5762 5762 5763 5764 5765 5766 5767 5768 5769 5770 5770 5771 5772 5772 5772 5773 5774 5774 5775 5776 5776 5777 5777 5778 5778 5778 5779 5779 5780 5780 5781 5781 5782 5782 5783 5784 5784 5785 5785 5786 5787 5787 5788 5788 5789 5789
5753 5754 5755 5755 5755 5756 5757 5758 5758 5759 5760 5761 5762 5763 5764 5765 5766 5767 5767 5768 5768 5769 5769 5770 5771 5771 5772 5772 5772 5773 5773 5774 5774 5775 5775 5776 5776 5777 5777 5778 5778 5779 5779 5780 5780 5781 5782 5782 5783 5783 5784 5784
5748 5750 5750 5751 5751 5751 5752 5753 5754 5755 5756 5757 5757 5758 5759 5760 5761 5762 5763 5763 5764 5764 5765 5765 5766 5766 5766 5767 5767 5768 5768 5769 5769 5770 5770 5771 5771 5772 5772 5773 5773 5773 5774 5774 5775 5776 5776 5777 5777 5778 5779 5779
5744 5745 5746 5747 5747 5747 5748 5749 5749 5750 5751 5752 5753 5753 5754 5755 5756 5757 5757 5758 5759 5759 5760 5760 5761 5761 5761 5762 5762 5763 5763 5764 5764 5765 5765 5766 5766 5767 5767 5768 5768 5768 5769 5769 5769 5770 5770 5771 5772 5772 5773 5774
5740 5741 5742 5742 5743 5743 5743 5744 5745 5746 5747 5747 5748 5749 5749 5750 5751 5751 5752 5753 5754 5754 5754 5755 5755 5756 5756 5757 5757 5757 5758 5758 5759 5759 5760 5760 5761 5761 5762 5762 5762 5763 5763 5763 5764 5764 5765 5765 5766 5766 5767 5768
5736 5737 5737 5738 5739 5739 5739 5739 5740 5741 5741 5742 5743 5744 5745 5745 5745 5746 5746 5747 5748 5748 5749 5749 5750 5750 5751 5751 5751 5752 5752 5753 5753 5754 5754 5755 5755 5755 5756 5756 5756 5757 5757 5758 5758 5758 5759 5759 5760 5760 5761 5761
5732 5733 5733 5733 5734 5734 5734 5735 5735 5736 5736 5737 5738 5739 5739 5740 5740 5740 5741 5742 5742 5743 5743 5744 5744 5745 5745 5745 5745 5746 5746 5747 5747 5748 5748 5749 5749 5750 5750 5750 5751 5751 5751 5752 5752 5752 5753 5753 5754 5754 5755 5755
5727 5728 5729 5729 5729 5729 5730 5730 5730 5731 5731 5732 5733 5734 5734 5734 5735 5735 5736 5736 5737 5737 5738 5738 5738 5739 5739 5739 5739 5740 5740 5740 5741 5741 5742 5742 5743 5743 5744 5744 5745 5745 5745 5746 5746 5746 5747 5747 5747 5748 5748 5749
5722 5723 5723 5724 5724 5724 5725 5725 5725 5726 5726 5727 5728 5728 5728 5729 5729 5730 5730 5730 5731 5731 5732 5732 5732 5733 5733 5733 5733 5734 5734 5734 5735 5735 5735 5736 5736 5737 5737 5738 5738 5739 5739 5740 5740 5740 5740 5740 5741 5741 5742 5742
5717 5718 5718 5719 5719 5719 5720 5720 5720 5721 5721 5721 5722 5722 5723 5723 5723 5724 5724 5725 5725 5725 5726 5726 5726 5727 5727 5727 5727 5727 5728 5728 5728 5729 5729 5729 5730 5730 5731 5731 5732 5732 5733 5733 5733 5734 5734 5734 5734 5735 5735 5735
5712 5713 5713 5713 5713 5714 5714 5714 5714 5715 5715 5716 5716 5716 5717 5717 5718 5718 5718 5719 5719 5719 5720 5720 5720 5720 5721 5721 5721 5721 5722 5722 5722 5722 5723 5723 5723 5724 5724 5725 5725 5725 5726 5727 5727 5727 5727 5728 5728 5728 5729 5729
5707 5708 5708 5708 5708 5709 5709 5709 5709 5710 5710 5710 5710 5710 5711 5711 5712 5712 5713 5713 5713 5714 5714 5714 5714 5714 5715 5715 5715 5716 5716 5716 5716 5716 5717 5717 5717 5717 5718 5718 5719 5719 5720 5720 5720 5721 5721 5722 5722 5722 5723 5723
5702 5702 5702 5703 5703 5703 5704 5704 5704 5705 5705 5705 5705 5705 5705 5706 5706 5707 5707 5707 5708 5708 5708 5708 5709 5709 5709 5709 5710 5710 5710 5710 5710 5710 5710 5711 5711 5711 5711 5712 5712 5713 5713 5714 5714 5715 5715 5716 5716 5716 5717 5717
5697 5697 5697 5698 5698 5698 5698 5699 5699 5699 5699 5699 5699 5700 5700 5700 5701 5701 5701 5702 5702 5702 5702 5702 5703 5703 5703 5703 5704 5704 5704 5704 5704 5704 5705 5705 5705 5705 5705 5706 5706 5707 5707 5708 5708 5709 5709 5709 5710 5710 5711 5711
5692 5692 5692 5692 5692 5692 5693 5693 5693 5693 5693 5694 5694 5694 5695 5695 5695 5695 5696 5696 5696 5696 5696 5696 5696 5697 5697 5698 5698 5698 5698 5698 5698 5699 5699 5699 5699 5699 5699 5700 5700 5701 5701 5702 5702 5702 5703 5703 5704 5704 5704 5705
5686 5686 5686 5686 5686 5687 5687 5688 5688 5688 5688 5688 5689 5689 5689 5689 5689 5690 5690 5690 5690 5690 5690 5690 5690 5691 5692 5692 5692 5692 5692 5693 5693 5693 5693 5693 5693 5693 5693 5694 5694 5694 5695 5695 5696 5696 5696 5697 5697 5698 5698 5698
5680 5680 5680 5680 5681 5681 5681 5682 5682 5682 5683 5683 5684 5684 5684 5684 5684 5684 5684 5684 5684 5684 5684 5684 5685 5685 5686 5686 5686 5686 5686 5686 5686 5686 5686 5686 5687 5687 5687 5687 5688 5688 5688 5689 5689 5689 5690 5690 5691 5691 5691 5692
5674 5675 5675 5675 5675 5675 5676 5677 5677 5677 5677 5678 5679 5679 5679 5678 5678 5678 5678 5678 5679 5679 5679 5679 5679 5680 5680 5680 5680 5680 5680 5680 5680 5680 5680 5680 5681 5681 5681 5681 5681 5681 5682 5682 5683 5683 5683 5683 5684 5684 5685 5685
5669 5669 5669 5669 5670 5670 5671 5671 5671 5671 5672 5673 5673 5673 5672 5672 5672 5672 5673 5673 5673 5673 5674 5674 5674 5674 5674 5674 5674 5674 5673 5673 5673 5674 5674 5675 5675 5675 5675 5674 5674 5675 5675 5676 5676 5676 5676 5677 5678 5678 5678 5678
5664 5664 5664 5665 5665 5665 5665 5665 5665 5666 5666 5666 5666 5666 5666 5666 5667 5667 5667 5668 5668 5668 5668 5668 5668 5668 5668 5668 5668 5667 5667 5667 5667 5668 5669 5669 5669 5669 5668 5667 5668 5668 5669 5669 5669 5669 5670 5670 5671 5671 5672 5672
5659 5659 5659 5659 5660 5660 5660 5659 5659 5660 5660 5660 5660 5661 5661 5661 5662 5662 5662 5663 5663 5663 5663 5662 5662 5661 5661 5661 5661 5661 5661 5661 5662 5663 5663 5663 5662 5662 5661 5661 5662 5662 5662 5663 5663 5663 5663 5664 5665 5665 5665 5665
5654 5654 5654 5654 5654 5654 5654 5653 5654 5654 5654 5654 5655 5655 5655 5656 5656 5657 5657 5657 5657 5657 5656 5656 5655 5654 5654 5654 5654 5655 5655 5655 5656 5656 5656 5656 5655 5655 5655 5654 5655 5656 5656 5656 5656 5656 5657 5658 5658 5658 5659 5659
5648 5648 5648 5648 5648 5648 5648 5648 5648 5649 5649 5649 5649 5650 5650 5651 5651 5651 5651 5651 5650 5650 5649 5649 5648 5647 5647 5647 5648 5649 5649 5649 5649 5649 5649 5649 5648 5648 5648 5648 5648 5649 5649 5649 5649 5650 5652 5652 5652 5652 5652 5652
5643 5643 5642 5642 5642 5642 5642 5643 5643 5643 5644 5644 5644 5645 5645 5645 5645 5644 5644 5643 5643 5642 5642 5642 5641 5641 5641 5642 5643 5643 5643 5642 5642 5642 5642 5642 5642 5642 5642 5642 5642 5642 5642 5643 5643 5644 5645 5645 5645 5646 5646 5645
5638 5637 5637 5637 5637 5637 5637 5638 5639 5638 5639 5639 5639 5639 5638 5638 5637 5636 5636 5636 5635 5636 5636 5635 5636 5636 5636 5636 5636 5636 5636 5636 5636 5636 5636 5636 5636 5636 5636 5635 5635 5636 5636 5636 5636 5637 5639 5638 5639 5640 5638 5638
5633 5632 5632 5632 5632 5632 5633 5633 5634 5634 5634 5633 5633 5632 5631 5630 5629 5629 5629 5629 5630 5630 5630 5630 5630 5630 5630 5630 5630 5630 5630 5630 5630 5630 5630 5630 5630 5630 5630 5629 5629 5630 5630 5630 5629 5630 5632 5632 5632 5632 5631 5631
5627 5627 5627 5627 5627 5628 5628 5628 5628 5629 5628 5627 5626 5626 5624 5623 5623 5623 5624 5624 5624 5624 5624 5624 5624 5624 5624 5624 5624 5624 5624 5624 5624 5624 5623 5623 5623 5624 5623 5623 5624 5624 5623 5622 5623 5623 5624 5624 5625 5625 5624 5624
5621 5622 5622 5622 5622 5622 5622 5623 5623 5623 5622 5621 5621 5620 5619 5618 5618 5618 5618 5618 5618 5618 5618 5618 5618 5618 5618 5618 5618 5617 5618 5618 5617 5617 5617 5616 5617 5617 5616 5617 5618 5617 5615 5616 5616 5616 5616 5617 5617 5617 5617 5617